Time,TemperatureF,DewpointF,PressureIn,WindDirection,WindDirectionDegrees,WindSpeedMPH,WindSpeedGustMPH,Humidity,HourlyPrecipIn,Conditions,Clouds,dailyrainin,SoftwareType,DateUTC
2013-07-28 00:02:00,66.0,65.0,30.01,ENE,64,0.0,3.0,97,0.03,,,1.87,,2013-07-28 04:02:00,
2013-07-28 00:12:00,66.0,65.0,30.01,ENE,64,0.0,1.0,97,0.04,,,1.88,,2013-07-28 04:12:00,
2013-07-28 00:22:00,66.0,65.0,30.01,ENE,64,0.0,1.0,97,0.08,,,1.92,,2013-07-28 04:22:00,
2013-07-28 00:32:00,66.0,65.0,30.01,ENE,64,0.0,1.0,97,0.14,,,1.98,,2013-07-28 04:32:00,
2013-07-28 00:53:00,66.0,65.0,30.00,ENE,64,0.0,3.0,97,0.47,,,2.34,,2013-07-28 04:53:00,
2013-07-28 01:02:00,65.0,64.0,30.00,ENE,64,0.0,1.0,98,0.51,,,2.34,,2013-07-28 05:02:00,
2013-07-28 01:12:00,65.0,64.0,30.00,ENE,64,0.0,1.0,98,0.50,,,2.34,,2013-07-28 05:12:00,
2013-07-28 01:22:00,65.0,64.0,30.00,ENE,64,0.0,0.0,98,0.47,,,2.34,,2013-07-28 05:22:00,
2013-07-28 01:32:00,66.0,65.0,29.99,ENE,64,0.0,1.0,98,0.40,,,2.34,,2013-07-28 05:32:00,
2013-07-28 01:43:00,65.0,64.0,29.99,ENE,64,0.0,0.0,98,0.17,,,2.34,,2013-07-28 05:43:00,
2013-07-28 01:52:00,65.0,64.0,29.99,ENE,64,0.0,0.0,98,0.05,,,2.34,,2013-07-28 05:52:00,
2013-07-28 02:02:00,65.0,64.0,29.99,ENE,64,0.0,0.0,98,0.00,,,1.73,,2013-07-28 06:02:00,
2013-07-28 02:12:00,65.0,64.0,29.99,ENE,64,0.0,0.0,98,0.00,,,1.73,,2013-07-28 06:12:00,
2013-07-28 02:22:00,65.0,64.0,29.99,ENE,64,0.0,0.0,97,0.00,,,1.73,,2013-07-28 06:22:00,
2013-07-28 02:32:00,65.0,64.0,29.99,ENE,64,0.0,0.0,98,0.00,,,1.73,,2013-07-28 06:32:00,
2013-07-28 02:43:00,65.0,64.0,29.98,ENE,64,0.0,0.0,98,0.00,,,1.73,,2013-07-28 06:43:00,
2013-07-28 02:52:00,65.0,64.0,29.98,ENE,64,0.0,2.0,98,0.00,,,1.73,,2013-07-28 06:52:00,
2013-07-28 03:02:00,65.0,64.0,29.98,ENE,64,0.0,0.0,98,0.00,,,1.54,,2013-07-28 07:02:00,
2013-07-28 03:12:00,65.0,64.0,29.98,ENE,64,0.0,1.0,98,0.00,,,1.54,,2013-07-28 07:12:00,
2013-07-28 03:23:00,64.0,63.0,29.98,ENE,64,0.0,0.0,98,0.00,,,1.54,,2013-07-28 07:23:00,
2013-07-28 03:32:00,64.0,63.0,29.98,ENE,64,0.0,0.0,98,0.00,,,1.54,,2013-07-28 07:32:00,
2013-07-28 03:43:00,64.0,63.0,29.98,ENE,64,0.0,0.0,98,0.00,,,1.54,,2013-07-28 07:43:00,
2013-07-28 03:53:00,64.0,63.0,29.98,ENE,64,0.0,0.0,98,0.00,,,1.54,,2013-07-28 07:53:00,
2013-07-28 04:02:00,64.0,63.0,29.98,ENE,64,0.0,1.0,98,0.00,,,1.49,,2013-07-28 08:02:00,
2013-07-28 04:12:00,64.0,63.0,29.98,ENE,64,0.0,0.0,98,0.00,,,1.49,,2013-07-28 08:12:00,
2013-07-28 04:22:00,64.0,63.0,29.98,ENE,64,0.0,0.0,98,0.00,,,1.49,,2013-07-28 08:22:00,
2013-07-28 04:33:00,64.0,63.0,29.98,ENE,64,0.0,0.0,98,0.00,,,1.49,,2013-07-28 08:33:00,
2013-07-28 04:42:00,64.0,63.0,29.98,ENE,64,0.0,0.0,98,0.00,,,1.49,,2013-07-28 08:42:00,
2013-07-28 04:53:00,64.0,63.0,29.98,ENE,64,0.0,0.0,98,0.00,,,1.49,,2013-07-28 08:53:00,
2013-07-28 05:02:00,64.0,63.0,29.98,ENE,64,0.0,0.0,98,0.00,,,1.36,,2013-07-28 09:02:00,
2013-07-28 05:12:00,64.0,63.0,29.98,ENE,64,0.0,0.0,98,0.00,,,1.36,,2013-07-28 09:12:00,
2013-07-28 05:22:00,64.0,63.0,29.98,ENE,64,0.0,0.0,98,0.00,,,1.36,,2013-07-28 09:22:00,
2013-07-28 05:32:00,64.0,63.0,29.98,ENE,64,0.0,0.0,98,0.00,,,1.36,,2013-07-28 09:32:00,
2013-07-28 05:43:00,64.0,63.0,29.98,ENE,64,0.0,1.0,98,0.00,,,1.36,,2013-07-28 09:43:00,
2013-07-28 05:53:00,64.0,63.0,29.99,ENE,64,0.0,1.0,98,0.00,,,1.36,,2013-07-28 09:53:00,
2013-07-28 06:02:00,64.0,63.0,29.99,ENE,64,0.0,1.0,98,0.00,,,1.10,,2013-07-28 10:02:00,
2013-07-28 06:12:00,64.0,63.0,30.00,ENE,64,0.0,2.0,98,0.00,,,1.10,,2013-07-28 10:12:00,
2013-07-28 06:22:00,63.0,62.0,30.00,ENE,64,0.0,0.0,97,0.00,,,1.10,,2013-07-28 10:22:00,
2013-07-28 06:33:00,63.0,62.0,30.00,ENE,64,0.0,0.0,98,0.00,,,1.10,,2013-07-28 10:33:00,
2013-07-28 06:42:00,63.0,62.0,30.01,ENE,64,0.0,1.0,97,0.00,,,1.10,,2013-07-28 10:42:00,
2013-07-28 06:52:00,63.0,62.0,30.01,ENE,64,0.0,1.0,97,0.00,,,1.10,,2013-07-28 10:52:00,
2013-07-28 07:12:00,63.0,62.0,30.01,ENE,64,0.0,1.0,98,0.00,,,1.10,,2013-07-28 11:12:00,
2013-07-28 07:22:00,63.0,62.0,30.01,ENE,64,0.0,1.0,98,0.00,,,1.10,,2013-07-28 11:22:00,
2013-07-28 07:33:00,63.0,62.0,30.01,ENE,64,0.0,1.0,98,0.00,,,1.10,,2013-07-28 11:33:00,
2013-07-28 07:43:00,63.0,62.0,30.01,ENE,64,0.0,0.0,97,0.00,,,1.10,,2013-07-28 11:43:00,
2013-07-28 07:54:00,63.0,62.0,30.01,ENE,64,0.0,0.0,98,0.00,,,1.10,,2013-07-28 11:54:00,
2013-07-28 08:02:00,63.0,62.0,30.01,ENE,64,0.0,0.0,98,0.00,,,1.10,,2013-07-28 12:02:00,
2013-07-28 08:12:00,63.0,62.0,30.02,ENE,64,0.0,0.0,98,0.00,,,1.10,,2013-07-28 12:12:00,
2013-07-28 08:22:00,64.0,64.0,30.02,ENE,64,0.0,0.0,99,0.00,,,1.10,,2013-07-28 12:22:00,
2013-07-28 08:33:00,64.0,63.0,30.02,ENE,64,0.0,0.0,98,0.00,,,1.10,,2013-07-28 12:33:00,
2013-07-28 08:43:00,64.0,63.0,30.02,ENE,64,0.0,0.0,98,0.00,,,1.10,,2013-07-28 12:43:00,
2013-07-28 08:53:00,64.0,63.0,30.03,ENE,64,0.0,0.0,98,0.00,,,1.10,,2013-07-28 12:53:00,
2013-07-28 09:12:00,65.0,65.0,30.03,ENE,64,0.0,0.0,99,0.00,,,1.09,,2013-07-28 13:12:00,
2013-07-28 09:22:00,65.0,64.0,30.03,ENE,64,0.0,0.0,98,0.00,,,1.09,,2013-07-28 13:22:00,
2013-07-28 09:32:00,65.0,65.0,30.03,ENE,64,0.0,0.0,99,0.00,,,1.09,,2013-07-28 13:32:00,
2013-07-28 09:43:00,65.0,64.0,30.03,ENE,64,0.0,0.0,98,0.00,,,1.09,,2013-07-28 13:43:00,
2013-07-28 09:53:00,65.0,65.0,30.03,ENE,64,0.0,0.0,99,0.00,,,1.09,,2013-07-28 13:53:00,
2013-07-28 10:02:00,66.0,66.0,30.03,ENE,64,0.0,1.0,99,0.00,,,1.09,,2013-07-28 14:02:00,
2013-07-28 10:12:00,66.0,66.0,30.03,ENE,64,0.0,1.0,99,0.00,,,1.09,,2013-07-28 14:12:00,
2013-07-28 10:23:00,66.0,66.0,30.03,ENE,64,0.0,1.0,99,0.00,,,1.09,,2013-07-28 14:23:00,
2013-07-28 10:33:00,67.0,67.0,30.03,ENE,64,0.0,1.0,99,0.00,,,1.09,,2013-07-28 14:33:00,
2013-07-28 10:53:00,68.0,68.0,30.03,ENE,64,0.0,1.0,99,0.00,,,1.09,,2013-07-28 14:53:00,
2013-07-28 11:03:00,68.0,68.0,30.03,ENE,64,0.0,3.0,99,0.00,,,1.09,,2013-07-28 15:03:00,
2013-07-28 11:13:00,68.0,68.0,30.03,SSW,203,0.0,3.0,99,0.00,,,1.09,,2013-07-28 15:13:00,
2013-07-28 11:22:00,67.0,67.0,30.03,SW,223,1.0,4.0,99,0.00,,,1.09,,2013-07-28 15:22:00,
2013-07-28 11:32:00,67.0,66.0,30.03,NW,321,0.0,4.0,96,0.00,,,1.09,,2013-07-28 15:32:00,
2013-07-28 11:43:00,67.0,66.0,30.03,NW,321,0.0,1.0,97,0.00,,,1.09,,2013-07-28 15:43:00,
2013-07-28 11:53:00,68.0,67.0,30.04,SSW,209,0.0,4.0,96,0.00,,,1.09,,2013-07-28 15:53:00,
2013-07-28 12:03:00,68.0,66.0,30.04,SSW,212,0.0,3.0,94,0.00,,,1.09,,2013-07-28 16:03:00,
2013-07-28 12:12:00,69.0,67.0,30.04,SSW,212,0.0,1.0,94,0.00,,,1.09,,2013-07-28 16:12:00,
2013-07-28 12:22:00,69.0,67.0,30.04,SSW,213,0.0,2.0,93,0.00,,,1.09,,2013-07-28 16:22:00,
2013-07-28 12:33:00,70.0,66.0,30.04,North,0,1.0,4.0,88,0.00,,,1.09,,2013-07-28 16:33:00,
2013-07-28 12:43:00,70.0,66.0,30.04,SW,235,0.0,5.0,86,0.00,,,1.09,,2013-07-28 16:43:00,
2013-07-28 12:52:00,70.0,67.0,30.04,SW,235,0.0,2.0,89,0.00,,,1.09,,2013-07-28 16:52:00,
2013-07-28 13:02:00,71.0,64.0,30.04,West,271,1.0,2.0,79,0.00,,,1.09,,2013-07-28 17:02:00,
2013-07-28 13:13:00,71.0,65.0,30.04,West,277,1.0,3.0,82,0.00,,,1.09,,2013-07-28 17:13:00,
2013-07-28 13:23:00,71.0,65.0,30.04,North,356,0.0,3.0,82,0.00,,,1.09,,2013-07-28 17:23:00,
2013-07-28 13:32:00,71.0,65.0,30.04,North,356,0.0,1.0,81,0.00,,,1.09,,2013-07-28 17:32:00,
2013-07-28 14:03:00,72.0,65.0,30.03,ENE,60,2.0,4.0,79,0.00,,,1.09,,2013-07-28 18:03:00,
2013-07-28 14:22:00,73.0,64.0,30.03,NNW,333,3.0,12.0,74,0.00,,,1.09,,2013-07-28 18:22:00,
2013-07-28 14:33:00,73.0,65.0,30.03,North,8,2.0,6.0,76,0.00,,,1.09,,2013-07-28 18:33:00,
2013-07-28 14:43:00,72.0,62.0,30.02,NNE,23,1.0,6.0,72,0.00,,,1.09,,2013-07-28 18:43:00,
2013-07-28 14:52:00,73.0,62.0,30.02,SSW,197,2.0,4.0,68,0.00,,,1.09,,2013-07-28 18:52:00,
2013-07-28 15:02:00,75.0,65.0,30.02,North,0,0.0,6.0,70,0.00,,,1.09,,2013-07-28 19:02:00,
2013-07-28 15:12:00,76.0,65.0,30.02,WNW,295,0.0,2.0,68,0.00,,,1.09,,2013-07-28 19:12:00,
2013-07-28 15:22:00,76.0,65.0,30.02,WNW,296,0.0,1.0,70,0.00,,,1.09,,2013-07-28 19:22:00,
2013-07-28 15:33:00,77.0,64.0,30.01,WNW,296,1.0,3.0,65,0.00,,,1.09,,2013-07-28 19:33:00,
2013-07-28 15:52:00,77.0,67.0,30.01,West,265,1.0,3.0,72,0.00,,,1.09,,2013-07-28 19:52:00,
2013-07-28 16:03:00,78.0,65.0,30.02,North,357,1.0,3.0,65,0.00,,,1.09,,2013-07-28 20:03:00,
2013-07-28 16:13:00,78.0,64.0,30.01,North,358,1.0,5.0,62,0.00,,,1.09,,2013-07-28 20:13:00,
2013-07-28 16:23:00,78.0,64.0,30.01,North,0,0.0,4.0,63,0.00,,,1.09,,2013-07-28 20:23:00,
2013-07-28 16:33:00,79.0,65.0,30.01,North,0,0.0,2.0,63,0.00,,,1.09,,2013-07-28 20:33:00,
2013-07-28 16:52:00,77.0,63.0,30.00,NNW,328,1.0,2.0,62,0.00,,,1.09,,2013-07-28 20:52:00,
2013-07-28 17:03:00,78.0,65.0,30.01,North,0,0.0,5.0,64,0.00,,,1.09,,2013-07-28 21:03:00,
2013-07-28 17:13:00,78.0,65.0,30.01,North,357,1.0,4.0,64,0.00,,,1.09,,2013-07-28 21:13:00,
2013-07-28 17:22:00,78.0,65.0,30.01,ENE,72,1.0,3.0,65,0.00,,,1.09,,2013-07-28 21:22:00,
2013-07-28 17:33:00,77.0,63.0,30.01,East,83,0.0,6.0,63,0.00,,,1.09,,2013-07-28 21:33:00,
2013-07-28 17:44:00,77.0,63.0,30.02,North,4,1.0,5.0,61,0.00,,,1.09,,2013-07-28 21:44:00,
2013-07-28 17:52:00,77.0,61.0,30.02,NNW,339,0.0,7.0,57,0.00,,,1.09,,2013-07-28 21:52:00,
2013-07-28 18:02:00,77.0,63.0,30.02,SW,228,1.0,3.0,61,0.00,,,1.09,,2013-07-28 22:02:00,
2013-07-28 18:12:00,77.0,63.0,30.02,ENE,72,0.0,4.0,63,0.00,,,1.09,,2013-07-28 22:12:00,
2013-07-28 18:22:00,77.0,66.0,30.02,ENE,72,0.0,3.0,69,0.00,,,1.09,,2013-07-28 22:22:00,
2013-07-28 18:32:00,76.0,62.0,30.02,NNE,23,2.0,5.0,61,0.00,,,1.09,,2013-07-28 22:32:00,
2013-07-28 18:43:00,76.0,62.0,30.02,NNE,17,0.0,3.0,61,0.00,,,1.09,,2013-07-28 22:43:00,
2013-07-28 18:52:00,75.0,61.0,30.02,North,0,0.0,4.0,62,0.00,,,1.09,,2013-07-28 22:52:00,
2013-07-28 19:03:00,75.0,62.0,30.02,North,5,0.0,4.0,63,0.00,,,0.82,,2013-07-28 23:03:00,
2013-07-28 19:12:00,75.0,62.0,30.02,North,4,0.0,2.0,63,0.00,,,0.82,,2013-07-28 23:12:00,
2013-07-28 19:22:00,74.0,62.0,30.02,North,4,0.0,2.0,67,0.00,,,0.82,,2013-07-28 23:22:00,
2013-07-28 19:32:00,74.0,62.0,30.03,North,4,0.0,5.0,66,0.00,,,0.82,,2013-07-28 23:32:00,
2013-07-28 19:43:00,73.0,63.0,30.03,North,5,0.0,1.0,70,0.00,,,0.82,,2013-07-28 23:43:00,
2013-07-28 19:53:00,72.0,62.0,30.03,NE,46,0.0,2.0,70,0.00,,,0.82,,2013-07-28 23:53:00,
2013-07-28 20:03:00,72.0,62.0,30.03,NE,49,1.0,2.0,72,0.00,,,0.58,,2013-07-29 00:03:00,
2013-07-28 20:22:00,70.0,61.0,30.04,NE,49,0.0,1.0,74,0.00,,,0.58,,2013-07-29 00:22:00,
2013-07-28 20:32:00,69.0,60.0,30.05,NE,49,0.0,0.0,74,0.00,,,0.58,,2013-07-29 00:32:00,
2013-07-28 20:52:00,69.0,62.0,30.05,NE,49,0.0,0.0,79,0.00,,,0.58,,2013-07-29 00:52:00,
2013-07-28 21:02:00,69.0,63.0,30.05,NE,49,0.0,0.0,80,0.00,,,0.56,,2013-07-29 01:02:00,
2013-07-28 21:14:00,68.0,62.0,30.06,NE,49,0.0,1.0,80,0.00,,,0.56,,2013-07-29 01:14:00,
2013-07-28 21:29:00,68.0,62.0,30.06,NE,49,0.0,1.0,80,0.00,,,0.56,,2013-07-29 01:29:00,
2013-07-28 21:58:00,66.0,61.0,30.08,NE,50,0.0,3.0,83,0.00,,,0.56,,2013-07-29 01:58:00,
2013-07-28 22:06:00,65.0,60.0,30.08,NE,56,0.0,3.0,84,0.00,,,0.55,,2013-07-29 02:06:00,
2013-07-28 22:14:00,65.0,60.0,30.08,NE,56,0.0,1.0,85,0.00,,,0.55,,2013-07-29 02:14:00,
2013-07-28 22:26:00,64.0,60.0,30.08,NE,56,0.0,1.0,86,0.00,,,0.55,,2013-07-29 02:26:00,
2013-07-28 22:57:00,63.0,59.0,30.09,ENE,63,0.0,1.0,87,0.00,,,0.55,,2013-07-29 02:57:00,
2013-07-28 23:17:00,63.0,59.0,30.09,ENE,63,0.0,1.0,87,0.00,,,0.54,,2013-07-29 03:17:00,
2013-07-28 23:24:00,63.0,59.0,30.09,ENE,63,0.0,2.0,88,0.00,,,0.54,,2013-07-29 03:24:00,
2013-07-28 23:36:00,62.0,58.0,30.09,ENE,63,0.0,0.0,87,0.00,,,0.54,,2013-07-29 03:36:00,
2013-07-28 23:48:00,62.0,58.0,30.09,ENE,63,0.0,1.0,88,0.00,,,0.54,,2013-07-29 03:48:00,
2013-07-28 23:57:00,62.0,59.0,30.09,ENE,63,0.0,2.0,89,0.00,,,0.54,,2013-07-29 03:57:00,